When you browse on this site, cookies collect data to enhance your experience and personalize the content and advertising you see.
Visit our Privacy Policy to learn more. By continuing to use the site, you agree to this use of cookies and data.
  • In Austria
  • List of Countries
  • For 7 days
  • Water Temperature
  • Satellite Maps
  • Weather Map
  • News
  • Weather Widgets
  • user-avatar
    Login

    Hourly Weather Superior

    Today, 22 April, Monday

    Time Temperature Precipitation Wind Pressure Humidity
    00:00 +3°C° 0 mm 6 mps 746 mmHg 91%
    01:00 +3°C° 0 mm 6 mps 746 mmHg 91%
    02:00 +3°C° 0 mm 6 mps 746 mmHg 91%
    03:00 +3°C° 0 mm 5 mps 746 mmHg 90%
    04:00 +3°C° 0.1 mm 6 mps 746 mmHg 91%
    05:00 +3°C° 0.1 mm 6 mps 746 mmHg 91%
    06:00 +3°C° 0 mm 6 mps 747 mmHg 90%
    07:00 +3°C° 1.3 mm 6 mps 747 mmHg 90%
    08:00 +3°C° 1.3 mm 6 mps 746 mmHg 91%
    09:00 +4°C° 1.3 mm 6 mps 746 mmHg 91%
    10:00 +4°C° 0.9 mm 6 mps 746 mmHg 91%
    11:00 +4°C° 0.9 mm 6 mps 746 mmHg 90%
    12:00 +4°C° 0.9 mm 6 mps 746 mmHg 90%
    13:00 +4°C° 1.9 mm 6 mps 746 mmHg 90%
    14:00 +5°C° 1.9 mm 5 mps 746 mmHg 89%
    15:00 +5°C° 1.9 mm 5 mps 746 mmHg 89%
    16:00 +5°C° 0.2 mm 5 mps 746 mmHg 87%
    17:00 +5°C° 0.2 mm 4 mps 746 mmHg 85%
    18:00 +5°C° 0.2 mm 4 mps 745 mmHg 83%
    19:00 +5°C° 0 mm 3 mps 746 mmHg 86%
    20:00 +4°C° 0 mm 3 mps 746 mmHg 88%
    21:00 +4°C° 0 mm 2 mps 746 mmHg 91%
    22:00 +4°C° 0 mm 2 mps 746 mmHg 91%
    23:00 +4°C° 0 mm 1 mps 746 mmHg 91%

    Tomorrow, 23 April, Tuesday

    Time Temperature Precipitation Wind Pressure Humidity
    00:00 +4°C° 0 mm 1 mps 746 mmHg 91%
    01:00 +4°C° 0 mm 1 mps 746 mmHg 90%
    02:00 +3°C° 0 mm 1 mps 746 mmHg 90%
    03:00 +2°C° 0 mm 2 mps 746 mmHg 89%
    04:00 +3°C° 0 mm 1 mps 746 mmHg 88%
    05:00 +4°C° 0 mm 1 mps 746 mmHg 86%
    06:00 +4°C° 0 mm 1 mps 747 mmHg 85%
    07:00 +7°C° 0 mm 1 mps 747 mmHg 76%
    08:00 +9°C° 0 mm 0 mps 747 mmHg 66%
    09:00 +12°C° 0 mm 0 mps 747 mmHg 57%
    10:00 +15°C° 0 mm 1 mps 746 mmHg 52%
    11:00 +16°C° 0 mm 1 mps 746 mmHg 47%
    12:00 +19°C° 0 mm 1 mps 746 mmHg 42%
    13:00 +19°C° 0 mm 1 mps 745 mmHg 41%
    14:00 +18°C° 0 mm 2 mps 745 mmHg 41%
    15:00 +19°C° 0 mm 2 mps 744 mmHg 41%
    16:00 +18°C° 0 mm 2 mps 744 mmHg 45%
    17:00 +17°C° 0 mm 2 mps 744 mmHg 50%
    18:00 +16°C° 0 mm 2 mps 743 mmHg 55%
    19:00 +14°C° 0 mm 2 mps 743 mmHg 61%
    20:00 +12°C° 0 mm 2 mps 743 mmHg 68%
    21:00 +10°C° 0 mm 1 mps 743 mmHg 75%
    22:00 +9°C° 0 mm 2 mps 743 mmHg 76%
    23:00 +8°C° 0 mm 2 mps 743 mmHg 78%

    Day after tomorrow, 24 April, Wednesday

    Time Temperature Precipitation Wind Pressure Humidity
    00:00 +8°C° 0 mm 2 mps 743 mmHg 79%
    01:00 +8°C° 0 mm 2 mps 742 mmHg 79%
    02:00 +8°C° 0 mm 3 mps 742 mmHg 78%
    03:00 +8°C° 0 mm 3 mps 741 mmHg 78%
    04:00 +9°C° 0 mm 3 mps 741 mmHg 77%
    05:00 +8°C° 0 mm 4 mps 740 mmHg 77%
    06:00 +8°C° 0 mm 4 mps 740 mmHg 76%
    07:00 +11°C° 0 mm 4 mps 739 mmHg 72%
    08:00 +12°C° 0 mm 5 mps 739 mmHg 68%
    09:00 +13°C° 0 mm 5 mps 738 mmHg 64%
    10:00 +15°C° 0 mm 5 mps 738 mmHg 60%
    11:00 +16°C° 0 mm 6 mps 738 mmHg 57%
    12:00 +17°C° 0 mm 6 mps 737 mmHg 53%
    13:00 +19°C° 0 mm 5 mps 737 mmHg 53%
    14:00 +20°C° 0 mm 5 mps 737 mmHg 52%
    15:00 +20°C° 0 mm 4 mps 736 mmHg 51%
    16:00 +20°C° 0 mm 4 mps 736 mmHg 55%
    17:00 +20°C° 0 mm 3 mps 736 mmHg 58%
    18:00 +20°C° 0 mm 2 mps 736 mmHg 61%
    19:00 +18°C° 0.6 mm 3 mps 736 mmHg 67%
    20:00 +17°C° 0.6 mm 3 mps 737 mmHg 74%
    21:00 +14°C° 0.6 mm 3 mps 737 mmHg 81%
    22:00 +13°C° 0.1 mm 3 mps 738 mmHg 81%
    23:00 +12°C° 0.1 mm 3 mps 738 mmHg 81%

    25 April, Thursday

    Time Temperature Precipitation Wind Pressure Humidity
    00:00 +12°C° 0.1 mm 2 mps 738 mmHg 81%
    01:00 +11°C° 0 mm 3 mps 739 mmHg 75%
    02:00 +10°C° 0 mm 3 mps 739 mmHg 69%
    03:00 +9°C° 0 mm 3 mps 739 mmHg 63%
    04:00 +9°C° 0 mm 3 mps 740 mmHg 63%
    05:00 +8°C° 0 mm 2 mps 741 mmHg 63%
    06:00 +8°C° 0 mm 2 mps 741 mmHg 63%
    07:00 +10°C° 0 mm 2 mps 742 mmHg 54%
    08:00 +12°C° 0 mm 3 mps 742 mmHg 45%
    09:00 +14°C° 0 mm 3 mps 742 mmHg 35%
    10:00 +17°C° 0 mm 3 mps 742 mmHg 31%
    11:00 +18°C° 0 mm 3 mps 742 mmHg 27%
    12:00 +20°C° 0 mm 3 mps 742 mmHg 23%
    13:00 +20°C° 0 mm 4 mps 741 mmHg 24%
    14:00 +20°C° 0 mm 4 mps 741 mmHg 25%
    15:00 +21°C° 0 mm 5 mps 741 mmHg 25%
    16:00 +20°C° 0 mm 5 mps 741 mmHg 28%
    17:00 +18°C° 0 mm 4 mps 741 mmHg 30%
    18:00 +17°C° 0 mm 4 mps 741 mmHg 32%
    19:00 +14°C° 0 mm 4 mps 742 mmHg 33%
    20:00 +12°C° 0 mm 4 mps 743 mmHg 35%
    21:00 +11°C° 0 mm 4 mps 744 mmHg 37%
    22:00 +9°C° 0 mm 3 mps 744 mmHg 39%
    23:00 +8°C° 0 mm 2 mps 745 mmHg 41%

    26 April, Friday

    Time Temperature Precipitation Wind Pressure Humidity
    00:00 +7°C° 0 mm 1 mps 745 mmHg 44%
    01:00 +7°C° 0 mm 1 mps 745 mmHg 45%
    02:00 +5°C° 0 mm 2 mps 745 mmHg 46%
    03:00 +5°C° 0 mm 2 mps 745 mmHg 48%
    04:00 +4°C° 0 mm 2 mps 745 mmHg 48%
    05:00 +4°C° 0 mm 2 mps 746 mmHg 49%
    06:00 +4°C° 0 mm 2 mps 746 mmHg 49%
    07:00 +7°C° 0 mm 2 mps 746 mmHg 42%
    08:00 +9°C° 0 mm 2 mps 746 mmHg 34%
    09:00 +11°C° 0 mm 3 mps 746 mmHg 26%
    10:00 +12°C° 0 mm 3 mps 746 mmHg 25%
    11:00 +13°C° 0 mm 3 mps 746 mmHg 23%
    12:00 +14°C° 0 mm 3 mps 745 mmHg 21%
    13:00 +16°C° 0 mm 3 mps 745 mmHg 21%
    14:00 +17°C° 0 mm 3 mps 744 mmHg 21%
    15:00 +17°C° 0 mm 3 mps 744 mmHg 21%
    16:00 +16°C° 0 mm 2 mps 744 mmHg 25%
    17:00 +16°C° 0 mm 2 mps 744 mmHg 29%
    18:00 +15°C° 0 mm 1 mps 743 mmHg 34%
    19:00 +14°C° 0 mm 1 mps 743 mmHg 39%
    20:00 +12°C° 0 mm 2 mps 743 mmHg 43%
    21:00 +10°C° 0 mm 2 mps 743 mmHg 48%
    22:00 +9°C° 0 mm 2 mps 743 mmHg 52%
    23:00 +10°C° 0 mm 1 mps 742 mmHg 56%

    27 April, Saturday

    Time Temperature Precipitation Wind Pressure Humidity
    00:00 +9°C° 0 mm 1 mps 742 mmHg 60%
    01:00 +9°C° 0.3 mm 1 mps 741 mmHg 67%
    02:00 +8°C° 0.3 mm 1 mps 740 mmHg 75%
    03:00 +8°C° 0.3 mm 1 mps 740 mmHg 83%
    04:00 +7°C° 2 mm 3 mps 738 mmHg 85%
    05:00 +6°C° 2 mm 4 mps 737 mmHg 88%
    06:00 +5°C° 2 mm 5 mps 736 mmHg 91%
    07:00 +4°C° 4.2 mm 6 mps 735 mmHg 92%
    08:00 +4°C° 4.2 mm 7 mps 733 mmHg 93%
    09:00 +2°C° 4.2 mm 8 mps 731 mmHg 94%
    10:00 +2°C° 4.5 mm 8 mps 730 mmHg 94%
    11:00 +2°C° 4.5 mm 9 mps 730 mmHg 93%
    12:00 +2°C° 4.5 mm 9 mps 729 mmHg 92%
    13:00 +2°C° 1.6 mm 8 mps 730 mmHg 91%
    14:00 +3°C° 1.6 mm 7 mps 731 mmHg 90%
    15:00 +3°C° 1.6 mm 6 mps 732 mmHg 88%
    16:00 +3°C° 0.1 mm 6 mps 734 mmHg 86%
    17:00 +3°C° 0.1 mm 5 mps 735 mmHg 84%
    18:00 +5°C° 0.1 mm 5 mps 737 mmHg 81%
    19:00 +4°C° 0 mm 4 mps 738 mmHg 84%
    20:00 +3°C° 0 mm 4 mps 739 mmHg 86%
    21:00 +2°C° 0 mm 3 mps 741 mmHg 89%
    22:00 +1°C° 0 mm 3 mps 741 mmHg 90%
    23:00 +1°C° 0 mm 2 mps 741 mmHg 91%
    Show more